Location: Unspecified
(0.0000°N, 0.0000°E)
Time: 01:15:56
(UTC+00:00)

Eole - Pass Details

Date: 24 May 2026
Orbit: 620 x 764 km, 50.1° (Epoch: 10 June)

Event Time Altitude Azimuth Distance (km) Brightness Sun altitude
Rises 18:42:08 0° 209° (SSW) 3,144 10.3 -10.6°
Reaches altitude 10° 18:44:38 10° 205° (SSW) 2,199 9.4 -11.1°
Maximum altitude 18:49:37 56° 127° (SE) 826 6.8 -12.3°
Drops below altitude 10° 18:54:22 10° 49° (NE) 2,097 9.0 -13.4°
Sets 18:56:42 0° 45° (NE) 2,985 9.8 -13.9°
